Location: Observatoire de Paris
(48.8363°N, 2.3365°E)
Time: 06:16:20
(UTC+01:00)

Vanguard 3 - Visible Passes

Search period start: 01 August 2021 00:00
Search period end: 11 August 2021 00:00
Orbit: 508 x 3261 km, 33.4° (Epoch: 31 July)

Date Brightness Start Highest point End Pass type
(mag) Time Alt. Az. Time Alt. Az. Time Alt. Az.
01 Aug 10.4 00:47:50 10° W 01:02:04 26° SW 01:04:59 25° SSW visible
01 Aug 10.3 21:15:36 10° WSW 21:32:21 48° S 21:49:34 11° ESE visible
01 Aug 10.3 23:30:19 10° W 23:46:42 35° SSW 23:54:01 27° S visible
02 Aug 10.9 01:50:26 10° WSW 01:58:29 15° SW 01:58:29 15° SW visible
02 Aug 10.4 22:13:58 10° W 22:30:44 42° SSW 22:43:05 21° SE visible
03 Aug 10.6 00:30:27 10° W 00:44:07 24° SW 00:47:33 23° SSW visible
03 Aug 10.4 20:58:28 10° WSW 21:14:25 47° S 21:32:13 10° SE visible
03 Aug 10.5 23:12:59 10° W 23:28:43 33° SSW 23:36:41 25° S visible
04 Aug 11.0 01:34:03 10° WSW 01:40:56 13° SW 01:41:09 13° SW visible
04 Aug 10.5 21:56:46 10° W 22:12:46 40° SSW 22:25:51 19° SSE visible
05 Aug 10.7 00:13:18 10° W 00:26:09 22° SW 00:30:20 20° SSW visible
05 Aug 10.4 20:41:29 10° WSW 20:56:33 45° S 21:14:33 10° SE visible
05 Aug 10.6 22:55:49 10° W 23:10:43 31° SSW 23:19:33 22° S visible
06 Aug 11.1 01:18:52 10° WSW 01:23:01 11° SW 01:24:02 11° SW visible
06 Aug 10.6 21:39:46 10° W 21:54:50 38° SSW 22:08:50 16° SSE visible
06 Aug 10.9 23:56:28 10° W 00:08:11 20° SW 00:13:19 18° SSW visible
07 Aug 10.4 20:24:39 10° WSW 20:38:45 43° SSW 20:56:31 10° SE visible
07 Aug 10.8 22:38:53 10° W 22:52:46 28° SSW 23:02:39 19° S visible
08 Aug 10.6 21:22:56 10° W 21:36:58 35° SSW 21:52:02 13° SSE visible
08 Aug 11.0 23:40:02 10° WSW 23:50:15 17° SW 23:56:32 14° SSW visible
09 Aug 10.9 22:22:11 10° W 22:34:53 25° SW 22:45:59 15° S visible
10 Aug 10.7 21:06:17 10° W 21:19:12 32° SSW 21:35:05 10° SSE visible
10 Aug 11.2 23:24:12 10° WSW 23:32:24 15° SW 23:40:00 11° SSW visible
